Home > Weather > Fetsund > Past weeks

Flag for Norway Past Weather in Fetsund, Norway — Yesterday and Last 2 Weeks

Now
56 °F

Cool.


Feels Like: 56 °F
Forecast: 48 / 61 °F
Wind: 3 mph from Southwest

Location: Oslo-Blindern

Current Time: Jul 2, 2016 at 2:20:56 AM

Latest Report: Jul 2, 2016 at 1:00 AM


Visibility: 9 mi

Pressure: 29.68 "Hg

Humidity: 81%

Dew Point: 51 °F

Location of FetsundLocation

Past Weather in Fetsund — Graph

°F

Fetsund Temperature Yesterday

Maximum temperature yesterday: 60 °F (at 12:00 PM)
Minimum temperature yesterday: 54 °F (at 5:00 AM)
Average temperature yesterday: 57 °F

High & Low Weather Summary for the Past Weeks

 TemperatureHumidityPressure
High76 °F (Jun 25, 4:00 PM)98% (Jun 21, 3:00 AM)30.15 "Hg (Jun 21, 3:00 AM)
Low50 °F (Jun 19, 5:00 AM)41% (Jun 28, 2:00 PM)29.55 "Hg (Jun 17, 1:00 AM)
Average61 °F76%29.83 "Hg
* Reported Jun 17 1:00 AM — Jul 2 1:00 AM, Fetsund, Weather by CustomWeather, © 2016

Note: Actual official high and low records may vary slightly from our data, if they occured in-between our weather recording intervals... More about our weather records

Advertising

Fetsund Weather History for the Previous 24 Hours

Scroll right to see more
 ConditionsComfort  
Time TempWeatherWind HumidityBarometerVisibility
1:00 AM
Sat, Jul 2
56 °FCool.3 mph81%29.68 "Hg9 mi
12:00 AM57 °FCool.6 mph82%29.67 "HgN/A
11:00 PM
Fri, Jul 1
57 °FCool.7 mph81%29.66 "Hg10 mi
10:00 PM58 °FCool.7 mph80%29.66 "Hg9 mi
9:00 PM58 °FCool.3 mph87%29.65 "Hg9 mi
8:00 PM58 °FLow clouds.6 mph93%29.64 "Hg19 mi
7:00 PM55 °FLight rain. Cloudy.2 mph94%29.64 "Hg12 mi
6:00 PM54 °FLots of rain. Cloudy.1 mph90%29.65 "Hg3 mi
5:00 PM56 °FLight rain. Overcast.3 mph88%29.67 "Hg31 mi
4:00 PM56 °FRain. Cloudy.1 mph91%29.66 "Hg9 mi
3:00 PM58 °FCool.2 mph83%29.67 "HgN/A
2:00 PM59 °FLight rain. Overcast.5 mph77%29.68 "Hg6 mi
1:00 PM60 °FCool.5 mph72%29.68 "Hg14 mi
12:00 PM60 °FCool.2 mph71%29.69 "Hg13 mi
11:00 AM59 °FCool.5 mph72%29.71 "Hg16 mi
10:00 AM58 °FRain showers. Cloudy.2 mph83%29.72 "Hg13 mi
9:00 AM57 °FCool.3 mph79%29.74 "HgN/A
8:00 AM57 °FLow clouds.3 mph82%29.74 "Hg19 mi
7:00 AM56 °FCool.5 mph85%29.75 "HgN/A
6:00 AM55 °FCool.2 mph87%29.74 "Hg9 mi
5:00 AM54 °FCool.2 mph92%29.75 "Hg9 mi
4:00 AM54 °FCool.3 mph91%29.74 "Hg9 mi
3:00 AM54 °FCool.3 mph91%29.74 "Hg9 mi
2:00 AM55 °FCool.3 mph90%29.74 "Hg9 mi
Weather by CustomWeather, © 2016

See weather overviewHow to use our weather pages